Regional Weather Roundup
Issued by NWS

Home | Current Version | Previous Version | Text Only | Print | Product List | Glossary On
Versions: 1 2 3 4 5 6 7 8 9 10 11 12 13 14 15 16 17 18 19 20 21 22 23 24 25 26 27 28 29 30 31 32 33 34 35 36 37 38 39 40 41 42 43 44 45 46 47 48 49 50
000
ASUS44 KFWD 141715
RWRTX
NORTH TEXAS HOURLY WEATHER ROUNDUP
NATIONAL WEATHER SERVICE FORT WORTH TX
1100 AM CST SUN FEB 14 2016

NOTE: "FAIR" INDICATES FEW OR NO CLOUDS BELOW 12,000 FEET WITH NO
SIGNIFICANT WEATHER AND/OR OBSTRUCTIONS TO VISIBILITY.

TXZ118-119-141800-
DALLAS/FORT WORTH METROPLEX

CITY           SKY/WX    TMP DP  RH WIND       PRES   REMARKS
DFW AIRPORT    CLOUDY    63  52  67 S13       29.95S
DALLAS LOVE    CLOUDY    62  52  69 S13       29.96F
FTW MEACHAM    CLOUDY    64  53  67 S12       29.94S
DAL-EXECUTIVE  CLOUDY    63  52  67 S8        29.95F
FTW-ALLIANCE   CLOUDY    62  52  69 S14       29.94F
FTW-NAS-JRB    CLOUDY    65  52  62 SW14      29.95S
FTW-SPINKS     CLOUDY    64  54  68 S15G23    29.96F
ARLINGTON      CLOUDY    65  53  65 S13G22    29.95F
GRAND PRAIRIE  PTSUNNY   63  52  67 S9        29.97F
MESQUITE       CLOUDY    63  54  72 S14G23    29.98F
LANCASTER      CLOUDY    63  51  66 S9G20     29.97F
$$

TXZ091>094-102>105-117-120-121-131>134-141800-
NORTH CENTRAL TEXAS

CITY           SKY/WX    TMP DP  RH WIND       PRES   REMARKS
SHRMAN/DENISON PTSUNNY   62  53  73 S15G21    29.96F
GAINESVILLE    PTSUNNY   62  53  73 S14       29.95F
BOWIE          CLOUDY    61  51  68 S12       29.92F
BRIDGEPORT     CLOUDY    61  53  75 SW12      29.95S
DECATUR        CLOUDY    60  51  71 S10       29.94F
DENTON         CLOUDY    63  53  70 S12       29.94F
MCKINNEY       CLOUDY    61  53  75 S10       29.97S
GREENVILLE     CLOUDY    61  54  77 S7        30.00F
ROCKWALL       CLOUDY    63  53  70 SW15G22   29.97F
TERRELL        CLOUDY    62  54  74 S13       29.99F
WAXAHACHIE     CLOUDY    63  55  75 S17       29.97F
CLEBURNE       CLOUDY    63  55  77 S15       29.96F HAZE
GRANBURY       CLOUDY    65  52  62 S14G20    29.96F
$$

TXZ083>090-098>101-113>116-127>130-139>142-154-155-141800-
WESTERN NORTH TEXAS

CITY           SKY/WX    TMP DP  RH WIND       PRES   REMARKS
WICHITA FALLS  CLOUDY    60  47  61 NE6       29.91R
WF-KICKAPOO    MOSUNNY   57  43  59 CALM      29.93S
VERNON         CLOUDY    49  34  56 N23G29    29.97R
ABILENE        CLOUDY    60  48  64 W12       29.95F
ABILENE-DYESS  CLOUDY    60  46  60 NW9       29.95S
BRECKENRIDGE   CLOUDY    64  49  58 W13       29.93S
GRAHAM         MOSUNNY   58  42  54 W13       29.93R
MINERAL WELLS  CLOUDY    63  51  65 SW14      29.92F
STEPHENVILLE   CLOUDY    63  51  64 S13       29.97F
COMANCHE       PTSUNNY   64  53  67 SW13G22   29.96F
BROWNWOOD      CLOUDY    64  52  63 SW9       29.97F
COLEMAN        CLOUDY    61  51  68 SW9       29.97S
$$

TXZ143>147-156>162-174-175-141800-
CENTRAL TEXAS

CITY           SKY/WX    TMP DP  RH WIND       PRES   REMARKS
WACO           CLOUDY    64  54  69 S17G25    29.97F
WACO-TSTC      CLOUDY    64  55  72 S21G30    29.97F
WACO-MCGREGOR  CLOUDY    64  56  75 S18G24    29.97F
HILLSBORO      CLOUDY    63  53  69 S15       29.98F
CORSICANA      CLOUDY    66  54  65 SW13      30.00F
MEXIA          CLOUDY    65  53  65 S18G30    29.99S
HEARNE         PTSUNNY   67  56  68 S15G25    30.02F
CAMERON        CLOUDY    68  55  64 SW20G26   30.00R
TEMPLE         CLOUDY    64  55  72 S20G25    29.98S
KILLEEN        CLOUDY    63  54  73 S22G29    29.95F
KILLEEN-SKYLRK CLOUDY    64  55  72 S16G28    29.98R
FORT HOOD      CLOUDY    63  54  72 S21       29.95S
GATESVILLE     CLOUDY    64  54  68 S21       29.97F
HAMILTON       CLOUDY    64  53  67 SW16G23   29.99R
LAMPASAS       CLOUDY    64  55  72 SW15      29.96S
$$

TXZ095>097-106>112-122>126-135>138-148>153-164>167-141800-
EAST TEXAS

CITY           SKY/WX    TMP DP  RH WIND       PRES   REMARKS
PARIS          CLOUDY    50  36  57 SE13      30.02S
SULPHUR SPRNGS CLOUDY    55  52  90 CALM      30.03F
MOUNT PLEASANT CLOUDY    54  43  66 SE6       30.05S
GILMER         CLOUDY    57  49  74 S8        30.03S
MINEOLA        CLOUDY    63  54  72 S7        30.02S
TYLER          CLOUDY    65  52  62 SW14G21   30.01S
LONGVIEW       CLOUDY    59  50  72 SE9       30.03S
MARSHALL       CLOUDY    53  48  82 S7        30.08S
ATHENS         CLOUDY    63  52  67 S7        29.99F
PALESTINE      CLOUDY    66  56  71 S7        30.03S
JACKSONVILLE   CLOUDY    63  55  77 S13       30.05S
HENDERSON      CLOUDY    64  55  72 S10G18    30.04S
CENTER         CLOUDY    61  55  82 SE7       30.05F
NACOGDOCHES    CLOUDY    64  55  72 S14G22    30.05R
LUFKIN         CLOUDY    66  56  70 S15G22    30.04S
$$

SUPPLEMENTAL OBSERVATIONS (CENTRAL)

CITY           SKY/WX    TMP DP  RH WIND       PRES   REMARKS
LAKE TEXOMA      N/A     63  54  72 S9          N/A
CADDO GRASSLND   N/A     52  43  71 S7          N/A
PAT MAYSE LAKE   N/A     48  36  61 E9          N/A
GREENVILLE       N/A     59  54  82 S7          N/A
CEDAR HILL       N/A     64  54  68 S9G17       N/A
ATHENS           N/A     64  52  63 SW8G17      N/A
LAKE LIMESTONE   N/A     66  54  63 SW22G32     N/A
MCGREGOR         N/A     63  54  72 SW12        N/A
$$

SUPPLEMENTAL OBSERVATIONS (WEST)

CITY           SKY/WX    TMP DP  RH WIND       PRES   REMARKS
MILLERS CREEK    N/A     52  39  62 N12G20      N/A
LBJ GRASSLAND    N/A     61  52  72 S9          N/A
COMANCHE         N/A     64  54  68 SW13G21     N/A
HAMBY            N/A     59  39  47 N9          N/A
IVIE RESERVOIR   N/A     66  50  55 W9          N/A
COLORADO BEND    N/A     64  52  63 W12G23      N/A
$$

SUPPLEMENTAL OBSERVATIONS (EAST)

CITY           SKY/WX    TMP DP  RH WIND       PRES   REMARKS
CLARKSVILLE      N/A     52  41  66 SE7         N/A
TEXARKANA        N/A     54  43  66 SE6         N/A
LINDEN           N/A     54  46  76 SE2         N/A
CADDO LAKE       N/A     55  46  71 S3G12       N/A
GILMER           N/A     61  50  67 S7          N/A
HENDERSON        N/A     64  54  68 S14G23      N/A
LUFKIN           N/A     66  55  68 MISG        N/A
N SABINE NF      N/A     57  52  82 MISG        N/A
S SABINE NF      N/A     59  52  77 SE5         N/A
$$

SUPPLEMENTAL OBSERVATIONS ARE A COLLECTION OF AUTOMATED INSTRUMENTS
THAT ARE MAINTAINED BY A VARIETY OF FEDERAL AND STATE AGENCIES.
CERTAIN ELEMENTS...SUCH AS HUMIDITY VALUES AND SUSTAINED WIND
SPEEDS...MAY BE APPROXIMATED.




USA.gov is the U.S. government's official web portal to all federal, state and local government web resources and services.